#timestamp,LO_Frequency,Hit,StdDev 
1684213215.5,286046999.3,N
1684213235.3,286046998.1,N
1684213255.1,286046998.7,N
1684213275.9,286046998.6,N
1684213295.7,286047001.0,N
1684213315.6,286047000.9,N
1684213335.4,286047001.2,N
1684213355.2,286047000.6,N
1684213375.1,286047000.9,N
1684213376.0,286047000.9,N
1684213395.8,286046998.6,N
1684213415.6,286047000.6,N
1684213435.5,286047011.9,Y
1684213455.3,286047002.2,P
1684213475.2,286047001.5,N
1684213495.9,286047004.2,P
1684213515.7,286047001.9,N
1684213535.6,286047004.0,N
1684213555.4,286047001.3,N
1684213575.2,286047001.8,N
1684213595.1,286047001.7,N
1684213596.0,286047001.7,N
1684213615.8,286047004.4,Y
1684213635.7,286047000.1,P
1684213655.5,286047002.8,P
1684213675.3,286047000.4,N
1684213695.2,286047000.4,N
1684213715.9,286046999.9,N
1684213735.7,286047000.0,N
1684213755.6,286047001.0,N
1684213775.4,286047002.4,N
1684213795.2,286047001.2,N
1684213815.1,286046999.5,N
1684213835.4,286046999.0,N
1684213855.3,286046998.5,N
1684213875.1,286047000.6,N
1684213895.9,286047000.8,N
1684213915.7,286047001.1,N
1684213935.5,286046998.1,N
1684213955.4,286046999.0,N
1684213975.2,286046999.3,N
1684213995.0,286046998.3,N
1684213995.9,286046998.3,N
1684214015.8,286046998.3,N
1684214035.6,286046997.4,N
1684214055.5,286046997.6,N
1684214075.3,286046997.8,N
1684214095.1,286046997.6,N
1684214115.9,286046997.3,N
1684214135.7,286046995.3,Y
1684214155.5,286046997.9,P
1684214175.4,286046997.3,P
1684214195.2,286046997.7,N
1684214215.1,286046998.2,N
1684214216.0,286046998.2,N
1684214235.8,286047000.9,N
1684214285.7,286047004.4,E
1684214295.6,286047000.0,N
1684214315.4,286046999.5,P
1684214335.3,286046997.8,P
1684214355.1,286046993.3,Y
1684214356.0,286046993.3,P
1684214375.8,286046995.7,N
1684214395.7,286046996.1,N
1684214415.5,286046996.1,N
1684214435.3,286046995.8,N
1684214455.2,286046995.1,N
1684214475.0,286046997.8,N
1684214475.9,286046997.8,N
1684214495.8,286046998.4,N
1684214515.6,286046998.7,N
1684214535.4,286046998.1,N
1684214555.3,286047001.1,N
1684214575.1,286046998.3,N
1684214595.8,286046998.7,N
1684214615.7,286046997.2,N
1684214635.5,286046995.3,N
1684214655.4,286046994.7,N
1684214675.2,286046994.0,Y
1684214695.0,286046999.3,P
1684214695.9,286046999.3,N
1684214715.8,286046997.7,N
1684214735.6,286046997.9,N
1684214755.4,286046997.1,Y
1684214775.3,286046998.4,P
1684214795.1,286047000.5,P
1684214815.9,286046998.1,N
1684214835.7,286046999.3,N
1684214855.5,286046998.3,N
1684214875.4,286047000.8,N
1684214895.2,286047001.0,N
1684214915.0,286047000.0,N
1684214915.9,286047000.0,N
1684214935.8,286047000.1,N
1684214955.6,286047000.2,N
1684214975.5,286047001.8,N
1684214995.3,286047001.3,N
1684215015.1,286047001.6,N
1684215035.9,286047004.4,Y
1684215055.7,286047002.1,P
1684215075.5,286046999.8,N
1684215095.4,286047000.4,N
1684215115.2,286047001.2,N
1684215135.1,286047001.2,N
1684215136.0,286047001.2,N
1684215155.8,286047000.5,N
1684215175.6,286046998.1,N
1684215195.5,286047000.0,N
1684215215.3,286046999.7,N
1684215235.1,286046998.1,N
1684215255.9,286046999.1,N
1684215275.7,286046997.8,N
1684215295.6,286046995.5,Y
1684215315.4,286046996.4,P
1684215335.2,286046993.6,P
1684215355.1,286046994.0,N
1684215356.0,286046994.0,N
1684215375.8,286046993.6,N
1684215395.6,286046994.3,N
1684215415.5,286046993.9,N
1684215435.3,286046995.8,N
1684215455.1,286046995.4,N
1684215475.9,286046997.3,N
1684215495.7,286046996.7,N
1684215515.6,286046996.5,N
1684215535.4,286046999.4,N
1684215555.2,286046998.9,N
1684215575.1,286046998.3,N
1684215576.0,286046998.3,N
1684215595.8,286046999.3,N
1684215615.6,286046998.8,N
1684215635.5,286046998.3,N
1684215655.3,286047000.9,N
1684215675.2,286047001.0,N
1684215695.9,286046998.2,N
1684215715.7,286046998.5,N
1684215735.6,286046998.2,N
1684215755.4,286046998.3,N
1684215775.2,286046999.4,N
1684215795.1,286046996.6,N
1684215796.0,286046996.6,N
1684215815.8,286046996.8,N
1684215835.7,286046997.8,N
1684215855.5,286046996.9,N
1684215875.3,286046996.9,N
1684215895.2,286046997.0,N
1684215915.9,286046999.4,N
1684215935.7,286046999.5,N
1684215955.6,286046999.0,N
1684215975.4,286046996.6,N
1684215995.2,286046999.6,N
1684216015.1,286046997.0,N
1684216016.0,286046997.0,N
1684216035.8,286046996.9,N
1684216055.7,286046996.9,N
1684216075.5,286046997.2,N
1684216095.3,286046996.7,N
1684216115.2,286046996.8,N
1684216135.0,286046996.7,N
1684216135.9,286046996.7,N
1684216155.8,286046996.7,N
1684216175.6,286046996.7,N
1684216195.4,286046997.0,N
1684216215.3,286046997.8,N
1684216235.1,286046995.0,Y
1684216255.8,286046999.1,P
1684216275.7,286047000.1,N
1684216295.5,286047001.7,N
1684216315.4,286047002.3,N
1684216335.2,286047001.6,N
1684216355.0,286047003.6,N
1684216355.9,286047003.6,N
1684216375.8,286047001.4,N
1684216395.6,286047002.0,N
1684216415.4,286047003.6,N
1684216435.3,286047003.6,N
1684216455.1,286047004.8,N
1684216475.8,286047005.8,N
1684216495.7,286047003.7,N
1684216515.5,286047003.6,N
1684216535.4,286047003.0,N
1684216555.2,286047004.1,N
1684216575.0,286047002.8,N
1684216575.9,286047002.8,N
1684216625.8,286047002.6,E
1684216635.7,286047002.6,N
1684216655.6,286047000.2,P
1684216675.4,286047002.8,N
1684216695.2,286047000.2,N
1684216715.1,286047000.1,N
1684216716.0,286047000.1,N
1684216735.8,286047000.0,N
1684216755.7,286047002.8,N
1684216775.5,286047000.4,N
1684216795.3,286046999.9,N
